Nashua, NH

3:43 AM EST on December 16, 2019 (GMT -0500)
Boire

Weather History for KASH - June, 2019

Change the Weather History Date:

Wednesday, June 12, 2019

  Actual Average Record
Temperature  
Mean Temperature 63 °F -  
Max Temperature 78 °F 77 °F 95 °F (2017)
Min Temperature 48 °F 50 °F 34 °F (1972)
Degree Days  
Heating Degree Days 2    
Growing Degree Days 13 (Base 50)    
Moisture  
Dew Point 47 °F    
Average Humidity 57    
Maximum Humidity 97    
Minimum Humidity 31    
Precipitation  
Precipitation 0.00 in - - ()
Sea Level Pressure  
Sea Level Pressure 30.16 in    
Wind  
Wind Speed 2 mph ()    
Max Wind Speed 7 mph    
Max Gust Speed -    
Visibility 10.0 miles    
Events      
Averages and records for this station are not official NWS values.
T = Trace of Precipitation, MM = Missing Value Source: Averaged Metar Reports

Daily Weather History Graph

Daily Weather History Graph

Search for Another Location

Airport or City:

Astronomy

Jun. 12, 2019 Rise Set
Actual Time 5:07 AM EDT 8:24 PM EDT
Civil Twilight 4:32 AM EDT 8:59 PM EDT
Nautical Twilight 3:47 AM EDT 9:45 PM EDT
Astronomical Twilight 2:51 AM EDT 10:40 PM EDT
Moon 3:21 PM EDT (6/12) 2:28 AM EDT (6/12)
Length of Visible Light 16h 27m
Length of Day
15h 17m
Waxing Gibbous, 76% of the Moon is Illuminated
Jun 12
Waxing Gibbous
Jun 17
Full
Jun 25
Last Quarter
Jul 2
New
Jul 9
First Quarter

Hourly Weather History & Observations

Time (EDT) Temp. Dew Point Humidity Pressure Visibility Wind Dir Wind Speed Gust Speed Precip Events Conditions
12:56 AM 55.0 °F 48.9 °F 80% 30.08 in 10.0 mi Calm Calm - N/A   Clear
1:56 AM 53.1 °F 48.0 °F 83% 30.09 in 10.0 mi Calm Calm - N/A   Clear
2:56 AM 51.1 °F 48.0 °F 89% 30.11 in 10.0 mi Calm Calm - N/A   Clear
3:56 AM 48.9 °F 48.0 °F 97% 30.13 in 10.0 mi WNW 3.5 mph - N/A   Clear
4:56 AM 48.0 °F 46.9 °F 96% 30.15 in 10.0 mi WNW 5.8 mph - N/A   Clear
5:56 AM 48.9 °F 48.0 °F 97% 30.18 in 10.0 mi Calm Calm - N/A   Clear
6:56 AM 54.0 °F 50.0 °F 86% 30.19 in 10.0 mi Calm Calm - N/A   Clear
7:56 AM 61.0 °F 50.0 °F 67% 30.20 in 10.0 mi Calm Calm - N/A   Clear
8:56 AM 64.9 °F 48.9 °F 56% 30.20 in 10.0 mi NW 5.8 mph - N/A   Clear
9:56 AM 68.0 °F 45.0 °F 43% 30.21 in 10.0 mi NNW 5.8 mph - N/A   Clear
10:56 AM 70.0 °F 45.0 °F 41% 30.21 in 10.0 mi Variable 4.6 mph - N/A   Clear
11:56 AM 71.1 °F 43.0 °F 36% 30.20 in 10.0 mi SSW 6.9 mph - N/A   Clear
12:56 PM 75.0 °F 45.0 °F 34% 30.20 in 10.0 mi Variable 5.8 mph - N/A   Clear
1:56 PM 75.0 °F 46.0 °F 36% 30.18 in 10.0 mi Variable 3.5 mph - N/A   Clear
2:56 PM 75.9 °F 45.0 °F 33% 30.16 in 10.0 mi Variable 5.8 mph - N/A   Clear
3:56 PM 77.0 °F 46.0 °F 33% 30.15 in 10.0 mi Variable 3.5 mph - N/A   Clear
4:56 PM 78.1 °F 45.0 °F 31% 30.14 in 10.0 mi Variable 6.9 mph - N/A   Clear
5:56 PM 77.0 °F 46.0 °F 33% 30.13 in 10.0 mi Variable 3.5 mph - N/A   Clear
6:56 PM 75.0 °F 45.0 °F 34% 30.13 in 10.0 mi Variable 4.6 mph - N/A   Clear
7:56 PM 72.0 °F 48.0 °F 43% 30.14 in 10.0 mi Calm Calm - N/A   Clear
8:56 PM 68.0 °F 50.0 °F 52% 30.15 in 10.0 mi SE 4.6 mph - N/A   Clear
9:56 PM 66.0 °F 51.1 °F 59% 30.16 in 10.0 mi South 5.8 mph - N/A   Clear
10:56 PM 64.0 °F 46.9 °F 54% 30.17 in 10.0 mi Variable 3.5 mph - N/A   Clear
11:56 PM 62.1 °F 46.9 °F 58% 30.17 in 10.0 mi SSE 3.5 mph - N/A   Clear